Simultaneous Nadir Overpasses (SNOs) Predictions

Prediction of SNOs between GOES-17 and METOP-A Satellite Orbit:

Table of predicted SNOs for the next 14.0 days since TLE Epoch: 8/21/2020
Index Date Time (GOES-17) GOES-17 Lat,Lon METOP-A Lat,Lon Distance(km) Time Diff (sec)
1 08/22/2020 05:42:57 0.02,-137.18 0.10,-136.66 58.05 80
2 08/23/2020 17:59:10 -0.02,-137.17 0.86,-141.27 466.24 80
3 08/24/2020 17:41:11 -0.01,-137.17 -0.22,-136.29 100.06 80
4 08/26/2020 05:57:32 0.01,-137.14 -0.81,-140.92 430.20 80
5 08/27/2020 05:39:32 0.01,-137.13 0.27,-135.94 135.51 80
6 08/28/2020 17:55:45 -0.02,-137.12 0.75,-140.54 390.11 80
7 08/29/2020 17:37:45 -0.01,-137.10 -0.33,-135.56 175.51 80
8 08/31/2020 05:56:46 0.01,-137.07 -0.70,-140.19 355.47 80
9 09/01/2020 05:36:07 0.00,-137.05 0.38,-135.21 209.88 80
10 09/02/2020 17:52:19 -0.00,-137.03 0.64,-139.80 316.17 80
11 09/03/2020 17:34:21 -0.00,-137.02 -0.50,-134.83 249.02 80
